DW9106 Madrid ES current weather conditions

sailwx.info

Wind from 249 at 5 knots gusting 21

Air temperature 8.9° C
Dewpoint 7.8° C

Last reported at 2016-Feb-12 06:33 UTC.
Time now 2016-Feb-12 07:53 UTC

Location: N 40°23' W 003°38'.
View on Google Maps.

See reports from other nearby stations

  
Tides and Currents Weather Stations Pressure Air Temp Water Temp Dewpoint Dewpoint Depression Visibility Wind Speed Wind Dir Waves Ship Positions
date/time (UTC)wind fromknots sea level pressurealtimeterstation pressurevisibilityair tempwater tempwave heightnotes
2016-Feb-12 06:33 249 5 gusting 21 8.9
2016-Feb-12 06:18 271 6 gusting 19 8.9
2016-Feb-12 06:03 137 5 gusting 16 8.3
2016-Feb-12 05:48 259 6 gusting 15 8.3
2016-Feb-12 05:33 263 6 gusting 13 8.3
2016-Feb-12 05:18 084 6 gusting 19 8.3
2016-Feb-12 05:03 270 4 gusting 15 8.3
2016-Feb-12 04:48 261 6 gusting 13 8.3
2016-Feb-12 04:33 295 5 gusting 20 8.9
2016-Feb-12 04:18 005 4 gusting 12 8.9
2016-Feb-12 04:03 131 6 gusting 16 8.9
2016-Feb-12 03:48 229 6 gusting 15 8.9
2016-Feb-12 03:33 237 6 gusting 14 8.9
2016-Feb-12 03:18 258 6 gusting 17 8.9
2016-Feb-12 03:03 276 5 gusting 16 8.9
2016-Feb-12 02:48 193 6 gusting 18 8.9
2016-Feb-12 02:33 248 5 gusting 12 8.9
2016-Feb-12 02:18 173 3 gusting 17 9.4
2016-Feb-12 02:03 234 5 gusting 14 9.4
2016-Feb-12 01:48 250 6 gusting 17 9.4
2016-Feb-12 01:33 257 4 gusting 13 9.4
2016-Feb-12 01:18 311 4 gusting 13 10.0
2016-Feb-12 01:03 119 5 gusting 14 10.0
2016-Feb-12 00:48 208 4 gusting 11 10.0
2016-Feb-12 00:33 170 5 gusting 13 10.0
2016-Feb-12 00:18 245 5 gusting 12 10.0
2016-Feb-12 00:02 205 6 gusting 13 10.0
2016-Feb-11 23:47 267 6 gusting 13 10.6
2016-Feb-11 23:32 296 4 gusting 12 10.6
2016-Feb-11 23:17 355 5 gusting 11 10.6
2016-Feb-11 23:02 355 4 gusting 10 10.6
2016-Feb-11 22:47 255 3 gusting 13 10.6
2016-Feb-11 22:32 190 5 gusting 11 10.6
2016-Feb-11 22:17 273 2 gusting 6 10.6
2016-Feb-11 22:02 223 2 gusting 7 10.6
2016-Feb-11 21:47 199 0 gusting 5 10.6
2016-Feb-11 21:32 252 4 gusting 10 11.1
2016-Feb-11 21:17 275 3 gusting 11 11.7
2016-Feb-11 21:02 297 6 gusting 13 11.7
2016-Feb-11 20:47 005 3 gusting 8 12.2
2016-Feb-11 20:32 232 3 gusting 6 12.2
2016-Feb-11 20:17 233 1 gusting 4 12.2
2016-Feb-11 20:02 193 1 gusting 6 12.8
2016-Feb-11 19:47 215 1 gusting 10 13.3
2016-Feb-11 19:32 173 2 gusting 9 13.3
2016-Feb-11 19:17 265 2 gusting 7 13.3
2016-Feb-11 19:02 147 0 gusting 3 13.3
2016-Feb-11 18:47 223 2 gusting 8 13.9
2016-Feb-11 18:32 237 1 gusting 10 13.9
2016-Feb-11 18:17 250 3 gusting 11 13.9
2016-Feb-11 18:02 203 2 gusting 13 14.4
2016-Feb-11 17:47 164 7 gusting 16 14.4
2016-Feb-11 17:32 261 6 gusting 15 15.0
2016-Feb-11 17:16 282 6 gusting 19 15.6
2016-Feb-11 17:01 213 4 gusting 22 15.6
2016-Feb-11 16:46 290 5 gusting 12 16.1
2016-Feb-11 16:31 268 6 gusting 13 15.6
2016-Feb-11 16:16 257 3 gusting 14 15.6
2016-Feb-11 16:01 045 3 gusting 14 15.6
2016-Feb-11 15:46 259 2 gusting 14 16.1
2016-Feb-11 15:31 275 3 gusting 19 15.6
2016-Feb-11 15:16 257 8 gusting 21 16.1
2016-Feb-11 15:01 222 6 gusting 23 16.1
2016-Feb-11 14:46 148 4 gusting 16 15.6
2016-Feb-11 14:31 289 6 gusting 15 16.1
2016-Feb-11 14:16 360 8 gusting 20 15.6
2016-Feb-11 14:01 247 5 gusting 14 15.6
2016-Feb-11 13:46 281 5 gusting 11 14.4
2016-Feb-11 13:31 275 6 gusting 16 15.0
2016-Feb-11 13:16 248 2 gusting 14 14.4
2016-Feb-11 13:01 188 7 gusting 13 13.9
2016-Feb-11 12:46 261 0 gusting 10 13.3
2016-Feb-11 12:31 256 4 gusting 10 13.3
2016-Feb-11 12:16 261 2 gusting 12 12.8
2016-Feb-11 12:01 229 4 gusting 12 12.2
2016-Feb-11 11:46 130 4 gusting 9 12.2
2016-Feb-11 11:31 245 0 gusting 10 11.7
2016-Feb-11 11:16 256 3 gusting 13 11.7
2016-Feb-11 11:01 231 2 gusting 6 11.7
2016-Feb-11 10:46 167 4 gusting 10 11.1
2016-Feb-11 10:31 254 5 gusting 13 11.1
2016-Feb-11 10:16 225 3 gusting 8 11.1
2016-Feb-11 10:01 240 4 gusting 13 11.1
2016-Feb-11 09:46 242 5 gusting 13 11.1
2016-Feb-11 09:31 117 5 gusting 12 11.1
2016-Feb-11 09:16 304 5 gusting 16 11.1
2016-Feb-11 09:01 263 1 gusting 12 11.1
2016-Feb-11 08:46 308 5 gusting 13 10.6
2016-Feb-11 08:31 134 6 gusting 12 11.1
2016-Feb-11 08:16 259 4 gusting 9 11.1
2016-Feb-11 08:00 215 4 gusting 9 11.1
2016-Feb-11 07:45 194 4 gusting 13 11.1
2016-Feb-11 07:30 282 5 gusting 11 11.1
2016-Feb-11 07:15 214 4 gusting 11 11.1
2016-Feb-11 07:00 223 4 gusting 11 11.1
2016-Feb-11 06:45 211 4 gusting 12 11.1
2016-Feb-11 06:30 229 5 gusting 12 10.6
2016-Feb-11 06:15 246 5 gusting 13 11.1
2016-Feb-11 06:00 229 2 gusting 9 10.6
2016-Feb-11 05:45 261 5 gusting 8 11.1
2016-Feb-11 05:30 219 3 gusting 11 11.1
2016-Feb-11 05:15 271 4 gusting 13 10.6
2016-Feb-11 05:00 200 8 gusting 14 10.6
2016-Feb-11 04:45 117 5 gusting 13 10.6
2016-Feb-11 04:30 250 2 gusting 9 10.6
2016-Feb-11 04:15 238 6 gusting 14 10.6
2016-Feb-11 04:00 217 5 gusting 12 10.6
2016-Feb-11 03:45 281 3 gusting 10 10.6
2016-Feb-11 03:30 192 5 gusting 11 10.6
2016-Feb-11 03:15 205 4 gusting 10 10.6
2016-Feb-11 03:00 300 2 gusting 9 10.6
2016-Feb-11 02:45 221 2 gusting 12 11.1
2016-Feb-11 02:30 268 4 gusting 10 11.1
2016-Feb-11 02:15 258 2 gusting 9 11.1
2016-Feb-11 02:00 270 2 gusting 11 11.1
2016-Feb-11 01:45 228 4 gusting 13 11.1
2016-Feb-11 01:30 148 3 gusting 10 11.1
2016-Feb-11 01:15 311 1 gusting 11 11.7
2016-Feb-11 01:00 278 3 gusting 12 11.7
2016-Feb-11 00:45 005 4 gusting 13 11.7
2016-Feb-11 00:30 209 6 gusting 16 11.7
2016-Feb-11 00:15 214 5 gusting 12 11.7
2016-Feb-11 00:00 258 5 gusting 10 11.7
2016-Feb-10 23:45 262 2 gusting 11 11.7
2016-Feb-10 23:30 233 3 gusting 14 11.7
2016-Feb-10 23:15 204 1 gusting 14 11.7
2016-Feb-10 22:59 350 5 gusting 16 11.7
2016-Feb-10 22:44 342 3 gusting 12 11.7
2016-Feb-10 22:29 261 4 gusting 11 11.7
2016-Feb-10 22:14 037 7 gusting 15 11.7
2016-Feb-10 21:59 259 4 gusting 12 12.2
2016-Feb-10 21:44 214 2 gusting 12 12.2
2016-Feb-10 21:29 164 3 gusting 10 12.2
2016-Feb-10 21:14 123 5 gusting 11 12.2
2016-Feb-10 20:59 225 6 gusting 13 12.2
2016-Feb-10 20:44 052 3 gusting 11 12.2
2016-Feb-10 20:29 275 4 gusting 12 12.2
2016-Feb-10 20:14 221 4 gusting 13 12.2
2016-Feb-10 19:59 207 4 gusting 13 12.8
2016-Feb-10 19:44 157 4 gusting 13 12.8
2016-Feb-10 19:29 256 6 gusting 14 12.8
2016-Feb-10 19:14 086 4 gusting 21 12.8
2016-Feb-10 18:59 097 5 gusting 14 12.8
2016-Feb-10 18:44 252 6 gusting 14 12.8
2016-Feb-10 18:29 283 6 gusting 19 12.8
2016-Feb-10 18:14 284 5 gusting 17 13.3
2016-Feb-10 17:59 241 6 gusting 17 13.3
2016-Feb-10 17:44 336 6 gusting 15 13.3
2016-Feb-10 17:29 271 8 gusting 19 13.3
2016-Feb-10 17:14 270 6 gusting 22 13.3
2016-Feb-10 16:59 246 6 gusting 19 13.3
2016-Feb-10 16:44 234 7 gusting 17 13.3
2016-Feb-10 16:29 231 6 gusting 13 13.3
2016-Feb-10 16:15 221 6 gusting 19 13.3
2016-Feb-10 15:59 234 5 gusting 19 13.3
2016-Feb-10 15:44 316 4 gusting 13 13.3
2016-Feb-10 15:29 340 4 gusting 13 13.3
2016-Feb-10 15:14 226 7 gusting 14 13.3
2016-Feb-10 14:59 025 6 gusting 22 13.3
2016-Feb-10 14:44 355 5 gusting 17 13.3
2016-Feb-10 14:29 238 8 gusting 20 13.3
2016-Feb-10 14:14 046 6 gusting 19 13.3
2016-Feb-10 13:59 128 7 gusting 19 12.8
2016-Feb-10 13:44 261 7 gusting 22 12.8
2016-Feb-10 13:29 237 6 gusting 24 12.2
2016-Feb-10 13:14 081 6 gusting 17 12.2
2016-Feb-10 12:59 159 6 gusting 20 12.2
2016-Feb-10 12:44 238 5 gusting 19 12.2
2016-Feb-10 12:29 244 7 gusting 17 11.7
2016-Feb-10 12:14 229 8 gusting 19 11.7
2016-Feb-10 11:59 217 8 gusting 17 11.1
2016-Feb-10 11:44 232 6 gusting 19 11.1
2016-Feb-10 11:29 247 9 gusting 20 10.6
2016-Feb-10 11:14 253 5 gusting 14 10.6
2016-Feb-10 10:59 227 5 gusting 13 10.6
2016-Feb-10 10:44 230 5 gusting 12 10.6
2016-Feb-10 10:29 221 4 gusting 16 10.6
2016-Feb-10 10:14 200 4 gusting 16 10.0
2016-Feb-10 09:59 241 7 gusting 15 10.0
2016-Feb-10 09:44 227 5 gusting 12 10.0
2016-Feb-10 09:29 300 4 gusting 14 9.4
2016-Feb-10 09:13 232 6 gusting 13 9.4
2016-Feb-10 08:58 227 3 gusting 17 9.4
2016-Feb-10 08:43 071 5 gusting 13 9.4
2016-Feb-10 08:28 201 4 gusting 16 8.9
2016-Feb-10 08:13 263 4 gusting 12 8.9
2016-Feb-10 07:58 292 6 gusting 11 8.9
2016-Feb-10 07:43 330 5 gusting 10 8.9
2016-Feb-10 07:28 235 4 gusting 10 8.9
2016-Feb-10 07:13 219 4 gusting 12 8.3